PST,Max TemperatureF,Mean TemperatureF,Min TemperatureF,Max Dew PointF,MeanDew PointF,Min DewpointF,Max Humidity, Mean Humidity, Min Humidity, Max Sea Level PressureIn, Mean Sea Level PressureIn, Min Sea Level PressureIn, Max VisibilityMiles, Mean VisibilityMiles, Min VisibilityMiles, Max Wind SpeedMPH, Mean Wind SpeedMPH, Max Gust SpeedMPH,PrecipitationIn, CloudCover, Events, WindDirDegrees
2011-12-1,64,61,57,36,27,19,31,25,19,29.94,29.80,29.68,10,10,6,24,16,30,0.00,6,,312
2011-12-2,64,52,39,43,37,34,76,56,36,30.01,29.94,29.90,10,10,10,14,5,16,0.00,2,,162
2011-12-3,63,48,33,35,16,8,96,54,12,30.19,30.07,29.92,10,10,10,26,10,36,0.00,0,,328
2011-12-4,68,49,29,27,15,3,47,28,8,30.22,30.15,30.06,10,10,10,12,3,15,0.00,0,,358
2011-12-5,65,50,35,20,13,7,64,38,11,30.37,30.25,30.12,10,10,10,17,10,23,0.00,0,,339
2011-12-6,62,44,26,23,15,9,58,35,12,30.44,30.37,30.32,10,10,7,10,5,13,0.00,0,,52
2011-12-7,64,44,24,24,16,9,68,40,12,30.32,30.21,30.11,10,10,9,7,3,8,0.00,0,,325
2011-12-8,67,46,25,26,20,12,63,38,12,30.15,30.10,30.04,10,10,10,7,3,10,0.00,0,,347
2011-12-9,72,50,27,36,25,18,72,44,15,30.20,30.14,30.10,10,10,10,10,3,10,0.00,0,,355
2011-12-10,74,54,33,29,23,16,56,34,12,30.14,30.06,29.99,10,10,10,8,3,10,0.00,0,,338
2011-12-11,66,49,31,35,28,21,70,46,22,29.97,29.89,29.80,10,10,10,9,3,12,0.00,0,,343
2011-12-12,57,48,39,54,45,31,100,77,54,29.88,29.82,29.75,10,8,5,12,3,16,0.06,6,Rain,325
2011-12-13,61,52,42,47,43,39,96,74,51,30.06,29.92,29.87,10,9,5,12,4,15,T,4,,323
2011-12-14,65,49,33,44,38,32,100,70,39,30.24,30.17,30.07,10,9,5,9,2,12,0.00,0,,9
2011-12-15,63,47,31,42,37,29,92,66,39,30.20,30.10,30.02,10,10,7,9,3,12,0.00,2,,8
2011-12-16,66,56,46,39,30,24,61,42,22,30.11,30.06,30.04,10,10,10,18,9,24,0.00,5,,316
2011-12-17,67,63,58,41,36,31,47,37,26,30.14,30.08,30.03,10,10,10,15,7,18,T,7,Rain,317
2011-12-18,65,54,43,41,38,34,83,60,37,30.15,30.07,30.01,10,10,10,12,4,14,0.00,3,,324
2011-12-19,65,49,33,45,38,31,92,68,43,30.06,30.01,29.96,10,10,10,9,3,14,0.00,0,,150
2011-12-20,71,56,41,42,32,26,83,52,20,30.05,29.99,29.93,10,10,10,14,4,21,0.00,0,,321
2011-12-21,68,50,31,34,30,25,78,51,24,30.03,29.97,29.91,10,10,10,7,3,9,0.00,0,,314
2011-12-22,63,49,35,33,8,-2,82,45,7,30.35,30.25,30.06,10,10,10,24,11,30,0.00,0,,312
2011-12-23,71,55,39,7,-2,-7,13,9,5,30.47,30.38,30.34,10,10,10,23,12,36,0.00,0,,312
2011-12-24,71,50,28,28,16,4,50,30,10,30.42,30.36,30.30,10,10,10,12,3,14,0.00,0,,181
2011-12-25,71,49,27,27,20,14,59,35,11,30.38,30.30,30.22,10,10,10,10,3,12,0.00,0,,313
2011-12-26,70,49,27,24,20,9,69,39,9,30.30,30.24,30.19,10,10,10,8,3,10,0.00,0,,350
2011-12-27,71,49,26,27,21,17,69,41,12,30.25,30.21,30.16,10,10,8,6,2,8,0.00,0,,343
2011-12-28,73,50,27,31,24,17,75,44,13,30.28,30.19,30.13,10,10,10,9,4,10,0.00,0,,330
2011-12-29,75,54,32,32,27,22,64,39,14,30.11,30.04,29.96,10,10,10,9,4,9,0.00,0,,356
2011-12-30,75,56,36,33,30,22,70,43,16,30.07,30.00,29.95,10,10,10,9,4,9,0.00,0,,333
2011-12-31,76,58,40,40,32,26,70,43,16,30.12,30.05,29.97,10,10,4,9,4,12,0.00,0,,35